Wind_Speed
12 12 11 10 9 8 8 7 8 9 8 8 8 8 8 8 10 11 11 11 12 12 12 12 12 10 9 8 7 7 7 6 6 6 5 4 3 4 5 4 4 3 1 1 2 1 1 1 2 2 1 3 5 3 1 1 3 4 4 4 4 5 6
12 12 13 12 10 9 9 9 8 8 8 8 8 9 10 11 12 13 13 13 12 12 12 12 12 11 10 10 9 8 7 7 7 7 6 5 5 4 5 4 4 3 2 2 3 4 2 1 2 2 3 6 4 3 5 6 6 6 6 7 6 6 7
13 13 14 13 11 10 10 10 9 9 9 9 8 9 10 11 11 11 11 12 12 12 12 12 12 12 12 12 12 11 10 9 9 8 7 6 6 6 5 5 4 4 2 2 3 4 3 2 3 3 4 6 4 5 8 7 7 7 7 7 6 6 7
15 15 16 15 14 12 11 11 11 10 10 10 10 9 10 10 9 8 9 10 10 10 11 11 11 11 12 12 12 12 12 12 11 10 9 8 7 7 7 6 5 4 3 2 3 4 4 4 4 5 5 5 6 8 7 7 11 11 9 8 9 9 9
17 16 17 16 16 14 13 13 12 12 12 12 11 11 10 9 8 7 7 8 8 9 10 10 10 10 10 11 11 11 11 11 11 10 10 9 8 8 7 7 6 5 4 3 3 4 5 5 6 6 7 7 7 8 7 9 12 11 8 9 11 10 9
20 18 18 17 16 15 14 14 14 14 14 14 13 12 11 9 7 6 6 6 7 8 8 9 9 9 10 10 10 10 10 10 10 10 10 10 10 8 7 6 6 5 5 4 4 4 4 6 7 7 8 9 8 9 9 9 10 10 10 9 8 7 7
22 21 19 19 17 16 15 15 15 15 16 16 15 13 12 10 8 6 5 5 5 6 7 7 7 7 8 10 10 10 10 10 10 10 10 10 10 9 7 6 6 6 5 6 5 5 4 5 7 7 9 9 10 11 11 10 9 9 8 7 6 8 8
23 23 21 20 19 17 17 16 16 15 15 15 15 14 13 11 9 8 7 6 5 5 6 6 6 7 7 8 9 9 9 9 9 9 9 9 9 9 8 6 5 5 5 6 5 5 5 5 6 7 8 8 8 8 8 9 10 9 9 8 9 9 9
24 24 23 21 20 19 17 17 17 15 14 14 14 15 13 12 11 9 8 7 5 4 5 5 5 6 6 7 8 8 8 8 7 8 8 8 8 8 7 6 5 4 5 5 5 5 5 5 5 6 6 7 7 6 6 7 8 8 8 8 8 7 6
26 25 25 22 20 19 19 18 17 17 15 14 15 15 15 13 12 10 9 7 5 4 3 3 4 5 5 6 7 7 7 7 6 6 6 6 7 7 7 7 5 4 5 4 4 4 4 5 5 5 6 6 7 6 6 6 7 7 7 8 9 8 6
27 26 25 24 22 21 21 20 19 19 17 16 16 16 15 14 13 11 10 8 6 5 3 3 3 3 4 5 6 5 5 5 5 5 5 5 5 6 6 6 6 5 5 5 5 5 5 5 5 5 5 6 7 7 8 8 8 9 9 9 10 10 10
28 27 26 25 23 23 23 22 21 21 20 18 18 17 16 15 14 13 12 10 8 6 4 4 3 3 3 4 4 4 4 3 4 4 3 3 4 5 5 6 6 6 6 6 6 6 6 5 5 6 6 6 7 8 9 10 9 9 10 10 11 11 13
29 29 28 27 26 25 25 24 23 23 22 21 20 19 18 17 16 15 14 12 10 8 6 5 5 4 3 3 3 3 3 2 2 2 2 3 3 4 4 5 6 6 7 7 7 7 7 6 6 7 7 7 8 9 10 11 11 12 12 13 14 15 14
30 30 30 29 29 28 27 27 26 24 23 22 22 21 20 18 17 16 15 13 11 9 8 7 6 5 4 2 2 2 2 2 1 1 2 2 3 4 5 6 6 7 8 9 9 9 8 7 7 7 7 7 9 9 10 12 13 14 14 13 14 15 13
31 31 30 30 31 31 30 29 28 26 24 23 23 22 21 20 18 17 16 15 13 11 9 8 7 6 4 3 2 0 1 1 1 1 1 1 3 4 5 6 7 8 10 10 10 10 10 9 8 8 8 8 9 9 9 12 14 15 15 14 14 15 13
32 32 31 32 32 32 32 31 30 29 27 25 23 23 22 21 20 19 18 16 14 12 11 9 8 6 5 4 2 1 0 1 1 1 0 1 3 5 6 7 8 9 11 12 11 11 11 10 9 10 10 10 10 10 10 11 13 15 17 17 14 14 14
31 31 32 33 34 33 33 32 32 30 28 26 24 23 23 22 21 21 20 18 16 14 12 10 8 6 5 4 3 1 1 1 1 1 2 3 4 6 6 7 8 10 12 12 12 12 11 10 10 10 11 11 11 12 11 11 13 15 17 18 16 14 16
27 28 30 32 33 33 32 32 32 32 31 29 26 24 23 24 23 23 21 20 17 14 12 10 7 6 5 5 3 2 2 2 2 3 4 5 7 8 8 9 10 11 12 13 13 12 11 11 11 11 11 12 12 12 12 12 14 15 17 20 19 17 16
24 26 28 30 31 31 30 30 30 29 26 23 23 24 24 25 25 24 23 20 17 14 11 9 7 7 7 5 4 3 3 3 4 5 7 7 8 10 11 12 13 13 13 13 13 13 12 12 12 12 12 12 12 12 13 13 14 16 18 20 21 20 18
24 25 26 27 29 29 29 29 27 26 22 20 21 23 24 26 26 25 24 20 16 14 11 10 9 9 7 6 5 5 5 5 6 8 9 10 12 13 15 15 16 15 14 13 13 13 12 13 12 13 13 13 12 12 13 13 13 15 16 18 19 20 19
23 26 27 26 26 27 29 29 27 25 25 26 25 25 26 28 28 27 24 20 16 14 12 11 11 10 9 7 6 5 5 6 7 9 11 13 14 16 17 18 18 17 15 15 14 14 14 13 13 14 14 13 13 13 14 14 14 14 15 16 17 18 18
17 20 23 24 24 25 26 27 27 25 24 25 26 26 29 31 31 29 26 22 19 17 15 14 13 12 10 8 6 5 5 7 8 10 11 13 15 17 18 18 19 19 19 19 19 19 18 17 16 16 16 15 15 15 15 15 15 14 15 15 16 16 16
12 14 17 20 22 23 24 25 25 24 24 24 26 28 31 32 32 31 28 25 22 20 19 17 14 12 9 7 4 3 5 7 9 11 13 14 15 16 17 17 18 20 21 21 21 20 20 20 19 19 19 19 18 17 17 17 16 16 15 15 15 15 15
11 12 14 16 19 21 21 22 23 23 24 25 27 30 32 33 31 29 26 25 23 22 20 17 14 11 8 5 3 2 5 8 10 12 13 14 15 16 16 16 16 17 18 18 18 18 19 21 21 20 21 21 21 21 20 20 18 17 17 17 17 16 16
12 13 13 14 17 20 20 20 21 23 24 26 28 31 32 32 30 26 24 23 22 21 19 16 13 10 6 4 2 3 6 9 11 12 13 14 15 15 15 15 15 15 15 17 18 17 18 19 20 20 21 21 22 24 25 25 23 21 19 19 19 18 18
14 14 14 13 15 18 20 19 20 22 24 26 29 31 31 31 28 25 24 22 21 19 17 14 11 8 5 2 2 4 7 10 12 13 14 15 14 14 15 15 15 14 15 16 17 16 16 17 17 19 20 21 22 23 25 27 28 27 26 24 23 22 20
15 15 14 12 12 16 19 20 20 23 25 26 29 30 30 29 26 25 23 22 20 17 15 12 9 6 3 1 4 6 9 13 15 15 16 16 15 15 15 15 15 15 15 16 15 15 15 16 16 18 19 19 20 21 23 24 26 28 29 29 30 29 25
16 15 14 12 12 14 18 20 21 23 25 27 29 31 30 28 26 24 23 21 18 15 12 9 6 3 1 3 6 9 12 16 16 15 16 16 15 15 16 15 15 16 16 15 15 16 16 17 18 20 20 20 21 21 22 23 23 24 26 27 29 29 27
17 15 13 13 13 14 17 20 22 23 25 26 28 29 28 27 27 25 23 19 16 13 9 5 3 1 2 5 8 10 13 14 13 13 15 15 16 16 15 15 15 15 16 16 16 17 18 19 20 21 21 21 22 22 23 23 23 24 26 26 28 29 29
18 17 14 14 14 15 18 21 22 24 26 27 29 29 28 28 26 24 20 16 13 10 7 4 2 1 4 7 9 11 12 12 12 13 14 15 16 15 14 14 16 17 17 17 17 18 18 19 20 22 22 23 23 24 24 22 22 24 25 26 28 30 31
18 17 15 15 15 16 18 21 22 24 28 30 30 29 28 25 21 18 15 12 10 7 6 3 0 3 5 8 11 12 12 12 13 14 15 15 15 15 15 16 17 18 19 18 18 20 20 20 22 23 24 25 25 26 25 22 22 23 23 23 25 27 29
19 17 16 16 17 18 19 20 21 22 24 27 29 27 25 22 18 14 12 10 8 6 4 2 2 5 7 9 12 13 12 13 15 16 16 17 17 16 17 18 19 19 20 21 21 22 22 22 24 24 25 26 27 27 24 23 23 23 22 22 23 23 24
20 17 16 18 19 20 20 21 22 23 25 26 27 25 22 20 17 13 10 8 6 4 3 2 4 6 8 10 12 14 14 14 16 18 17 18 19 20 20 21 20 19 20 22 23 24 24 24 24 25 25 26 28 27 24 24 24 25 25 25 25 25 25
18 16 18 21 21 21 23 25 28 30 31 29 26 22 20 18 15 11 7 6 4 2 2 4 5 7 9 10 13 15 15 15 16 18 18 19 22 23 22 21 21 20 21 22 23 24 25 26 27 27 27 28 29 29 28 28 28 28 28 29 29 28 27
15 16 20 23 24 25 27 31 34 34 32 29 25 21 18 15 13 9 6 4 2 2 4 6 6 8 10 12 14 16 17 17 19 19 19 21 23 23 22 21 21 21 21 23 25 27 29 30 30 30 31 32 33 33 33 32 30 29 29 29 28 28 27
16 19 22 26 30 32 33 35 35 33 30 27 23 20 17 14 11 8 5 3 2 3 5 6 7 9 11 13 15 17 18 21 22 20 20 22 24 22 21 21 21 22 24 27 30 31 32 32 32 31 32 34 35 35 35 33 31 30 29 28 27 28 28
20 25 29 33 36 36 35 35 33 29 27 25 22 19 16 12 10 7 4 2 2 3 5 7 8 10 12 14 17 19 22 24 24 21 19 21 22 21 21 22 24 27 29 31 32 33 33 32 31 31 32 33 33 33 32 31 29 28 27 27 27 27 28
Wind_Direction
177 169 168 163 155 149 142 132 119 117 119 114 109 104 99 103 105 105 104 101 97 92 87 84 84 84 88 90 90 94 97 94 93 94 85 69 66 63 61 70 73 70 65 12 9 349 303 253 240 211 210 322 331 318 289 327 315 300 294 290 281 266 271
188 173 170 170 166 160 156 153 142 135 134 126 117 110 108 110 109 104 99 95 89 83 78 75 74 76 77 80 84 85 87 87 83 83 77 61 52 44 37 43 48 45 35 27 22 9 353 276 285 303 331 344 345 278 283 303 310 310 302 296 293 277 270
198 183 178 178 176 172 169 166 160 153 150 143 134 124 119 119 115 105 96 91 84 78 76 74 73 73 74 76 80 82 84 82 77 77 78 69 58 47 37 33 28 20 359 349 6 1 345 304 294 303 328 343 337 300 301 300 299 305 303 298 294 284 278
206 193 186 184 184 182 179 177 171 162 158 155 149 140 133 131 127 116 102 95 88 81 78 79 79 78 79 80 81 81 82 80 77 77 76 73 66 57 50 45 35 25 6 331 331 329 311 301 295 289 297 299 288 289 294 296 298 299 295 288 280 277 279
214 205 197 194 192 189 186 184 178 169 162 160 157 152 149 147 143 132 116 105 96 89 85 85 87 87 87 88 87 84 82 79 79 77 74 71 68 63 57 51 46 40 30 358 331 320 304 300 296 288 292 294 284 278 280 293 299 294 286 282 281 279 279
221 217 210 206 202 197 193 190 186 180 173 168 165 165 164 162 159 149 136 123 107 96 92 93 95 95 94 94 92 91 87 83 81 81 78 74 72 68 64 57 50 42 33 20 356 331 310 301 294 289 293 296 292 287 288 291 291 286 280 275 272 270 269
224 224 221 217 212 207 203 199 196 191 186 180 175 174 173 172 172 171 167 152 126 110 105 104 106 103 100 98 96 94 92 89 87 86 84 80 75 70 66 61 52 43 32 21 11 354 336 314 301 299 299 295 289 289 290 289 286 283 278 270 267 271 273
227 229 229 227 222 216 211 209 207 203 199 193 185 182 181 181 183 185 186 178 154 130 120 120 121 118 112 104 99 96 96 94 91 87 83 79 74 69 65 62 55 47 35 23 15 3 351 335 320 316 312 302 293 290 292 292 288 283 281 282 280 277 278
229 231 233 234 232 226 221 217 215 214 211 204 195 190 189 191 193 193 190 185 172 148 136 136 133 130 124 110 102 100 99 99 94 88 82 75 68 64 61 60 59 53 39 29 19 7 358 346 329 320 315 308 302 301 300 298 293 289 292 294 290 286 284
230 232 234 237 238 235 231 226 223 221 218 212 204 199 198 199 200 200 196 192 184 166 150 149 144 138 128 113 104 102 103 103 101 92 85 76 66 59 55 52 51 47 36 25 15 6 357 347 332 317 306 300 297 297 298 299 295 293 298 298 296 294 294
233 234 235 238 241 240 237 234 230 226 223 219 213 208 205 203 201 200 200 198 193 187 180 173 165 145 125 109 100 98 101 104 106 100 90 79 62 53 50 46 41 36 26 13 1 353 344 335 326 313 302 291 285 283 286 292 291 290 293 292 287 289 299
236 237 238 239 240 239 239 239 237 233 228 224 219 215 211 206 202 199 200 201 200 198 201 199 190 171 137 110 93 86 84 88 100 103 94 72 54 49 45 38 32 25 14 3 353 345 333 323 312 301 293 285 279 276 277 281 280 280 285 289 288 290 298
236 238 240 242 243 243 243 243 242 240 234 228 224 220 216 211 206 202 200 201 200 200 204 203 199 194 167 117 96 81 59 57 80 88 69 49 47 48 36 22 16 9 1 352 342 335 324 314 306 293 284 279 273 271 271 271 273 278 280 282 285 288 292
238 238 239 242 244 245 246 247 247 245 239 232 227 223 219 215 211 206 202 200 198 199 201 200 198 195 181 142 108 74 41 47 76 68 47 36 33 27 13 3 357 351 350 344 336 329 317 307 300 288 280 277 272 270 270 270 273 280 282 281 282 284 287
244 242 241 242 243 244 246 247 248 246 242 235 229 225 221 217 213 209 205 200 196 197 197 198 198 192 180 170 158 80 33 103 126 100 63 31 5 355 350 346 341 339 339 336 331 325 317 307 296 285 278 276 274 271 271 273 276 282 286 287 285 285 287
247 246 245 245 245 245 245 245 246 246 243 238 230 225 223 219 214 210 207 202 199 199 198 199 200 194 183 180 188 232 254 159 157 144 68 344 335 336 336 335 332 331 331 329 323 320 314 304 295 287 279 275 273 271 269 271 275 279 285 288 287 286 288
248 247 248 248 248 248 247 246 245 243 241 238 230 224 221 218 213 210 207 204 203 202 201 202 202 193 188 190 195 207 204 192 198 254 303 312 317 321 323 322 322 322 322 319 315 313 309 302 297 290 283 278 273 270 268 266 269 275 281 284 284 283 285
250 249 250 252 253 252 250 248 246 244 241 236 228 221 217 214 212 210 207 206 206 205 205 206 200 193 198 203 203 201 202 217 260 290 300 306 310 313 314 313 312 314 312 308 306 305 302 298 295 289 284 281 277 273 270 266 266 269 274 279 282 283 283
260 257 255 255 256 255 253 251 249 244 239 233 226 219 214 210 209 209 209 209 208 206 205 201 194 195 202 204 204 209 222 250 276 287 297 305 307 308 309 307 306 306 303 298 297 296 295 293 290 286 283 281 279 276 273 268 266 266 268 273 279 281 280
272 270 264 259 257 256 256 255 250 242 238 237 229 219 214 211 209 208 208 206 205 204 201 196 195 197 200 201 208 224 244 265 280 289 296 301 304 305 306 305 303 300 295 290 289 289 289 289 286 282 281 279 278 276 273 270 268 266 265 268 272 276 278
276 275 271 266 261 258 256 255 251 245 242 238 228 217 213 211 207 204 203 201 200 200 197 193 193 195 200 210 220 236 261 282 294 301 304 306 307 308 307 304 301 297 290 285 283 283 282 282 282 281 279 276 274 274 275 273 270 267 265 265 267 271 274
275 273 271 268 264 260 257 253 251 247 242 235 226 217 212 208 203 199 196 195 195 195 192 190 192 196 203 213 227 250 281 301 312 316 315 313 311 309 307 303 299 296 292 288 286 283 280 275 273 274 274 274 273 272 272 271 270 269 267 266 266 268 270
282 272 269 267 265 263 258 254 250 245 239 233 224 215 209 205 202 198 193 190 188 186 186 187 191 198 202 208 229 277 306 321 328 328 324 319 313 309 306 301 296 295 296 294 291 287 283 279 273 268 267 267 268 269 270 268 266 265 267 267 267 267 268
291 274 266 265 266 264 259 253 249 243 237 230 221 213 206 202 199 197 192 187 181 177 178 181 186 191 194 203 228 304 330 335 334 330 325 319 312 307 304 299 294 293 293 292 290 285 283 281 278 273 268 263 261 261 262 264 264 263 262 264 264 264 264
299 282 269 261 260 261 258 252 246 239 233 226 217 209 202 197 193 191 188 182 176 171 170 173 177 178 181 198 248 334 343 340 336 330 324 317 310 305 301 298 295 292 288 289 291 286 280 278 278 276 273 269 265 260 256 256 258 259 260 262 263 261 261
300 290 277 263 255 256 254 247 241 236 230 222 212 201 195 192 188 184 180 175 170 165 162 164 168 168 171 199 317 343 346 343 337 330 325 319 311 304 300 297 295 291 288 291 291 285 278 277 276 275 275 273 270 267 262 257 255 255 256 259 261 261 260
296 292 282 265 250 249 248 243 237 232 224 214 203 194 189 184 179 175 173 171 166 160 157 159 164 166 174 284 332 341 344 342 338 333 328 322 313 306 300 296 293 291 290 288 286 283 282 283 282 280 279 275 271 270 268 265 261 257 255 254 256 259 259
294 290 280 263 245 240 241 238 231 224 216 207 197 189 183 177 172 168 168 167 162 157 156 158 163 174 240 323 335 343 344 341 337 332 327 323 316 307 300 294 289 288 288 287 284 284 286 288 288 286 282 278 275 272 269 266 262 259 256 253 253 257 259
292 288 277 259 243 234 233 231 223 214 205 196 189 182 176 170 167 164 163 164 162 159 160 168 185 235 311 330 340 346 344 338 333 327 322 320 315 308 299 292 289 287 287 287 286 286 287 290 290 287 284 281 279 275 271 268 264 261 259 257 256 257 259
288 285 274 256 241 229 225 223 216 206 195 185 177 173 167 164 163 162 159 160 162 161 161 171 196 302 329 336 343 345 340 331 324 320 318 316 312 306 296 290 291 290 289 288 287 286 287 290 289 287 285 284 281 277 275 274 272 270 267 264 262 261 261
282 278 267 251 236 222 217 213 204 196 189 178 169 163 159 155 154 154 150 146 146 145 144 149 35 341 334 333 338 338 333 325 321 319 318 315 310 304 297 294 291 287 285 285 284 283 283 286 288 286 285 283 281 278 277 277 277 276 274 272 270 267 265
274 268 257 242 226 212 203 195 186 180 173 163 154 150 146 140 135 132 131 128 126 123 118 100 351 339 331 328 331 333 329 323 320 319 316 314 311 305 301 299 294 288 285 285 285 285 285 287 287 285 283 282 279 277 277 277 277 277 276 275 273 271 270
268 259 243 227 213 199 187 175 165 156 146 138 135 133 128 124 121 119 118 114 108 100 83 15 335 328 324 322 326 328 325 319 317 316 313 311 311 307 304 301 298 293 289 287 287 287 287 287 285 283 281 279 276 276 278 278 276 276 276 275 273 273 271
257 242 226 212 195 181 173 162 151 143 136 130 127 124 118 114 114 113 110 102 81 49 356 328 319 319 321 322 323 323 317 311 312 312 309 308 308 305 302 300 297 294 291 288 287 288 288 287 284 282 279 275 273 275 277 277 276 276 275 274 273 272 270
233 215 206 193 174 159 155 151 145 140 136 132 130 127 121 117 114 111 105 98 64 347 321 319 319 320 322 321 319 317 312 310 313 311 305 305 304 300 298 297 295 293 291 288 288 288 288 287 285 280 277 274 273 274 274 274 274 274 272 270 269 267 265
204 189 179 168 156 145 142 142 140 137 134 131 128 123 118 113 113 111 106 88 23 344 333 329 326 324 324 320 318 317 314 314 316 311 302 301 301 298 296 295 294 292 291 289 289 289 288 286 283 278 275 274 274 274 273 271 270 269 267 265 263 261 259
178 166 158 151 144 139 137 137 136 133 130 127 123 121 118 117 119 119 112 67 17 2 347 336 330 326 324 319 316 315 314 314 316 312 303 298 298 297 295 295 294 294 294 293 292 291 290 287 282 278 276 276 275 275 272 269 266 263 260 258 256 255 253
Height
816 817 817 818 819 820 821 822 823 823 824 824 825 825 826 826 826 826 826 826 827 827 827 827 827 828 828 828 828 828 828 828 829 829 829 829 829 829 829 828 828 827 828 829 828 828 828 828 827 826 828 829 828 828 829 828 828 828 828 828 829 829 828
816 817 817 818 819 820 821 822 823 823 824 825 825 826 826 826 827 827 827 827 827 828 828 828 828 828 828 828 828 828 828 828 829 829 829 829 829 829 829 829 829 829 829 829 829 828 828 829 828 827 827 828 827 827 828 828 827 826 826 827 827 827 827
815 816 817 818 819 819 820 821 822 823 824 825 825 826 826 827 827 827 828 828 828 828 828 828 828 828 828 828 828 828 828 828 828 829 829 829 829 829 829 829 829 829 829 829 829 829 829 829 829 828 828 828 827 826 826 826 826 825 825 825 825 826 826
814 815 816 817 818 819 820 821 822 823 824 825 825 826 826 827 827 828 828 828 828 828 829 829 829 829 828 828 828 828 829 829 829 829 829 829 830 830 830 830 830 830 830 830 830 830 829 829 828 828 827 828 827 826 825 825 824 824 824 823 823 823 824
813 814 815 816 817 818 819 820 821 822 823 824 825 826 826 827 827 828 828 828 828 829 829 829 829 829 829 829 829 829 830 830 830 830 830 830 830 831 831 831 831 831 831 831 831 831 830 829 829 828 827 827 826 825 825 824 822 822 822 822 822 821 821
812 813 814 815 816 817 818 819 820 821 822 823 824 825 825 826 827 827 828 828 828 828 829 829 829 829 829 830 830 830 830 830 831 831 831 831 831 831 832 832 832 832 832 832 832 831 831 830 830 828 827 826 825 824 823 822 821 820 820 820 821 821 821
811 812 813 814 815 816 817 818 819 820 821 822 823 823 824 825 826 826 827 827 828 828 828 829 829 829 829 830 830 830 830 831 831 831 831 831 832 832 832 832 832 832 832 832 832 831 831 831 830 829 828 827 825 823 822 820 819 819 818 818 819 819 819
809 811 812 813 814 815 816 817 818 819 820 820 821 822 823 824 825 826 826 827 827 828 828 829 829 829 829 830 830 830 830 831 831 831 831 831 831 832 831 832 832 832 832 832 832 831 831 831 831 830 830 827 825 822 820 819 818 817 817 817 817 817 818
808 810 811 812 814 815 816 817 817 818 819 820 820 821 822 823 824 825 826 827 827 828 828 828 829 829 829 830 830 830 830 831 831 831 831 831 831 831 831 831 831 831 831 831 831 831 831 831 831 830 830 829 827 823 821 819 817 816 816 816 816 816 816
807 808 809 811 812 814 815 816 817 817 818 819 820 820 821 822 823 824 825 826 827 828 828 828 829 829 829 829 830 830 830 831 831 831 831 831 831 831 831 831 831 831 831 831 831 831 831 831 830 830 830 829 828 826 823 820 817 815 816 816 816 815 815
805 806 808 809 811 812 813 814 815 816 817 818 819 819 820 821 822 824 824 826 826 827 828 828 829 829 829 830 830 830 830 830 831 831 831 831 831 831 831 831 831 831 831 831 831 831 831 830 830 829 829 828 828 827 825 822 818 816 816 816 815 815 815
803 804 805 807 808 809 810 811 812 814 815 816 817 818 819 820 821 822 823 824 825 826 827 827 828 828 829 829 829 830 830 830 830 831 831 831 831 831 831 831 831 831 831 831 831 830 830 830 829 829 828 828 827 827 826 824 819 815 816 816 815 815 815
800 802 803 804 806 807 808 809 810 812 813 814 816 817 818 819 820 821 822 823 824 825 826 826 827 827 828 828 829 829 829 829 829 830 830 830 830 830 831 830 830 830 830 830 830 829 829 828 828 828 827 826 826 826 825 824 819 814 815 815 814 814 814
798 799 800 802 803 804 806 807 808 809 811 812 814 815 816 817 818 820 820 821 822 823 824 825 825 826 826 827 827 827 828 828 828 829 829 829 829 829 829 830 829 829 829 829 828 828 827 827 826 826 825 825 824 824 823 822 819 814 813 814 813 812 812
795 796 797 798 800 801 802 804 805 807 808 810 812 813 814 816 817 818 819 820 821 821 822 823 823 824 825 825 826 826 826 827 827 827 827 828 828 828 828 828 828 828 827 827 827 826 826 825 824 824 823 822 822 822 821 820 818 814 811 811 812 811 810
792 793 794 795 796 797 799 800 802 804 805 807 809 810 812 813 815 816 817 818 819 820 820 821 822 823 824 824 825 825 826 826 826 827 827 827 827 827 827 827 827 826 826 826 825 825 824 823 823 822 821 821 820 819 819 818 817 814 810 809 809 809 808
789 790 791 791 792 793 795 797 798 800 801 803 805 807 809 811 813 814 815 816 817 818 818 819 821 821 822 823 824 824 825 825 826 826 826 826 826 826 826 826 826 825 825 824 824 823 822 822 821 820 819 818 818 817 816 816 815 813 809 807 806 807 807
787 787 788 789 789 791 792 794 795 796 797 799 801 804 806 808 810 811 812 814 815 816 817 818 819 820 821 822 822 823 824 824 825 825 825 825 825 825 825 825 824 824 823 823 822 822 821 820 819 819 818 816 816 815 814 813 812 811 809 805 803 804 804
785 785 786 786 787 788 789 791 792 794 796 799 801 802 804 805 807 808 810 811 813 814 815 816 818 819 819 820 821 822 822 823 823 823 823 824 823 823 823 823 822 822 821 821 820 819 819 819 818 817 816 815 814 813 812 811 810 809 808 805 802 800 800
784 783 783 783 784 785 786 787 788 790 794 798 800 801 803 804 804 805 807 809 810 812 813 814 815 817 818 819 820 820 821 822 822 822 822 822 822 821 821 820 820 819 819 818 817 817 817 816 816 815 814 813 812 811 810 809 808 807 806 803 801 798 797
781 781 781 781 781 782 783 784 785 787 789 791 793 796 798 800 801 802 804 806 807 809 810 811 813 814 816 817 818 819 820 821 821 821 821 820 820 819 818 818 817 816 816 815 814 814 813 813 813 812 812 811 810 809 808 807 805 804 803 801 799 797 795
779 778 778 778 778 779 780 781 782 783 785 787 789 792 793 795 796 797 798 800 802 805 807 808 810 812 814 815 817 818 819 820 820 820 820 819 818 817 816 815 814 813 812 811 811 810 809 810 810 809 809 809 808 807 806 804 803 802 800 798 796 795 793
776 776 775 775 775 776 777 778 779 781 782 784 786 788 789 791 792 793 794 795 797 799 802 804 807 809 811 813 815 816 817 818 819 818 818 817 816 815 814 813 811 810 809 808 807 806 805 805 805 805 805 805 805 804 803 802 800 799 797 796 794 793 791
774 773 773 773 773 773 775 776 777 778 780 781 783 784 786 788 790 792 793 794 795 797 799 802 804 806 809 811 813 814 815 816 817 816 816 815 814 812 811 810 809 807 806 805 804 803 802 801 800 800 800 801 801 801 800 799 797 796 795 792 791 790 788
771 771 771 771 771 771 772 773 775 776 777 778 780 782 784 786 788 791 793 794 796 797 798 800 803 805 807 809 810 811 813 814 814 814 814 812 811 810 809 807 806 804 803 802 801 800 798 797 796 796 796 796 796 796 796 796 794 793 792 789 787 786 785
769 768 768 769 769 769 770 771 772 773 774 776 778 780 782 784 787 789 791 794 796 797 798 800 802 804 806 807 808 809 810 811 812 812 811 810 809 807 806 804 802 801 799 798 797 796 795 794 793 792 792 791 791 791 791 791 790 790 789 787 784 782 782
767 767 766 766 767 767 767 768 770 771 772 774 776 778 780 783 785 787 790 793 796 798 799 800 801 803 805 806 806 807 808 809 809 809 808 807 805 804 803 801 799 797 796 795 794 793 792 791 790 789 788 787 786 786 786 786 785 785 785 783 781 778 779
765 765 764 764 765 765 765 766 767 768 770 772 774 776 778 781 784 787 789 792 795 797 799 800 801 802 803 804 805 805 806 806 806 806 805 804 802 801 799 797 795 794 793 792 791 790 789 789 787 786 785 783 782 782 782 781 781 780 779 779 777 775 775
763 762 762 762 762 762 763 764 765 766 768 771 773 775 777 779 782 785 788 791 793 796 798 799 801 802 802 803 803 804 804 804 804 803 802 800 799 797 796 794 792 791 789 789 788 787 787 786 784 782 781 779 778 777 777 777 777 776 775 774 772 771 771
760 760 760 760 760 760 761 762 763 765 767 769 772 774 776 779 782 785 787 789 792 795 797 799 800 801 801 802 802 803 803 803 802 801 799 797 796 794 793 792 790 788 787 785 784 784 784 783 782 780 777 776 774 773 772 772 772 771 770 769 768 767 766
758 757 757 757 758 758 759 760 762 764 766 768 771 773 777 780 784 786 787 789 792 795 796 798 800 800 800 801 801 802 802 801 800 798 796 794 793 792 790 789 787 786 784 782 781 781 781 780 779 777 774 772 771 769 769 769 768 766 765 764 763 762 761
755 754 754 755 755 756 757 759 761 764 767 769 771 774 778 782 785 787 789 791 793 794 796 798 799 799 800 800 800 800 800 799 797 795 794 792 790 789 788 786 784 782 780 778 777 777 777 777 775 773 771 769 767 765 765 765 764 763 762 760 759 758 757
751 751 751 752 753 754 756 758 761 764 768 772 775 777 780 782 785 788 790 792 793 794 796 797 797 798 799 799 799 798 798 797 795 793 792 790 788 786 785 783 780 778 777 775 774 773 773 772 771 769 768 766 762 761 762 761 760 759 758 756 755 754 753
747 748 749 750 751 753 755 757 760 764 768 772 776 779 781 782 785 789 791 792 793 795 796 796 797 797 797 797 797 797 796 795 794 792 790 788 786 784 781 779 776 775 773 771 770 769 768 767 767 765 763 761 759 758 759 757 756 756 754 753 751 750 749
744 745 747 748 751 753 756 758 760 764 767 771 775 778 780 782 784 788 790 791 793 795 796 796 796 796 796 796 796 795 794 793 791 790 787 785 783 780 778 775 773 771 769 767 765 764 762 762 761 759 757 756 754 755 755 753 752 751 750 748 747 745 744
742 743 746 748 751 753 756 758 761 764 768 772 775 777 779 782 785 788 790 791 793 794 795 795 794 795 794 794 794 793 792 790 788 787 784 782 779 776 774 771 769 767 766 764 761 759 758 757 756 754 752 751 750 750 749 748 747 746 745 743 742 740 739
741 743 746 749 751 754 757 760 763 766 769 772 774 777 780 783 785 788 789 791 792 793 794 794 794 793 793 792 791 790 788 786 784 783 781 778 775 772 770 768 765 763 761 758 756 754 752 751 750 748 746 746 745 745 744 742 741 740 739 738 736 734 732